[[{"header":{"parameterUnit":"m.s-1","parameterCategory":1,"la1":30.2991,"la2":30.254,"lo1":-89.0895,"lo2":-89.0444,"dy":0.0017,"dx":0.0017,"nx":28,"ny":28,"refTime":"2024-05-12T21:00:00:Z","depth":0,"parameterNumber":2,"parameterNumberName":"U-component_of_WINDS"},"data":[0,0,0,0,0,0,0,0,0,0,0,0,0,0,0,0,0,0,0,0,0,0,0,0,0,0,0,0,0,0,0,0,0,0,0,0,0,0,0,0,0,0,0,0,0,0,0,0,0,0,0,0,0,0,0,0,0,0,-0.8132,-0.8136,0,-0.851,-0.8514,-0.8519,-0.8617,-0.8615,-0.8613,-0.861,-0.9007,-0.9019,-0.9032,0,0,0,0,0,0,0,0,0,0,0,0,0,-0.7509,-0.752,-0.8132,-0.8137,-0.8141,-0.8509,-0.8515,-0.852,-0.8618,-0.8615,-0.8612,-0.8609,-0.9003,-0.9018,-0.9033,0,0,0,0,0,0,0,0,0,0,0,0,0,-0.7822,-0.7523,-0.8131,-0.8234,-0.8247,-0.8508,-0.8515,-0.8521,-0.8618,-0.8615,-0.8611,-0.8608,-0.8998,-0.9016,-0.9035,-0.9224,0,0,-0.9094,-0.9102,0,0,0,0,0,0,0,0,-0.7805,-0.7845,-0.8214,-0.8228,-0.8243,-0.8513,-0.8441,-0.8757,-0.8619,-0.8478,-0.861,-0.8606,-0.8846,-0.8877,-0.8956,-0.9242,-0.9259,-0.9096,-0.9107,-0.9115,-0.9121,0,0,0,0,0,0,0,-0.7783,-0.783,-0.8282,-0.822,-0.8237,-0.8266,-0.8307,-0.8501,-0.8677,-0.849,-0.8498,-0.8541,-0.8853,-0.8938,-0.8966,-0.9265,-0.9095,-0.9112,-0.9124,-0.9131,-0.9733,-0.9737,0,0,0,0,0,0,-0.7741,-0.7811,-0.827,-0.8293,-0.801,-0.828,-0.8326,-0.843,-0.8675,-0.8709,-0.8543,-0.8544,-0.8907,-0.8944,-0.8981,-0.9223,-0.9115,-0.9133,-0.9144,-0.9729,-0.9734,-0.9739,0,0,0,0,0,0,-0.7728,-0.7781,-0.8255,-0.8055,-0.8117,-0.8295,-0.8411,-0.8439,-0.8524,-0.8716,-0.8749,-0.8596,-0.8906,-0.8954,-0.9164,-0.9238,-0.9142,-0.9159,-0.9723,-0.973,-0.9737,-0.9705,0,0,0,0,0,0,-0.7709,-0.7776,-0.7846,-0.8055,-0.8127,-0.8427,-0.8415,-0.8449,-0.8555,-0.8559,-0.8774,-0.8807,-0.8906,-0.9135,-0.9183,-0.9263,-0.9174,-0.9718,-0.9726,-0.9734,-0.9701,-0.971,-0.9718,0,0,0,0,0,-0.7687,-0.7822,-0.7849,-0.7903,-0.8217,-0.8431,-0.8473,-0.8582,-0.856,-0.8635,-0.876,-0.88,-0.9221,-0.9155,-0.921,-0.9297,-0.9713,-0.9724,-0.9734,-0.9697,-0.9708,-0.9718,0,0,0,0,0,0,-0.762,-0.7851,-0.7883,-0.809,-0.824,-0.8447,-0.8544,-0.859,-0.8751,-0.8749,-0.8881,-0.8929,-0.9131,-0.9235,-0.9157,-0.9496,-0.9468,-0.949,-0.9421,-0.9434,-0.9442,-0.9415,-0.919,0,0,0,0,0,-0.7628,-0.7778,-0.7974,-0.8138,-0.8211,-0.8364,-0.8462,-0.8533,-0.8695,-0.876,-0.8899,-0.9058,-0.9227,-0.9336,-0.9501,-0.9715,-0.9767,-0.9803,-0.9811,-0.9818,-0.9836,-0.9964,-0.9984,-0.9772,-0.9772,-0.9772,0,0,-0.7649,-0.7794,-0.7881,-0.8128,-0.8253,-0.8411,-0.8417,-0.8582,-0.8703,-0.8786,-0.8993,-0.9101,-0.9288,-0.9502,-0.9603,-0.9595,-0.9906,-0.9831,-0.9834,-0.985,-0.9976,-0.9996,-1.0014,-0.9779,-0.9778,-0.9777,0,0,-0.7768,-0.789,-0.8042,-0.8167,-0.8355,-0.8457,-0.8493,-0.8696,-0.877,-0.8979,-0.9047,-0.9194,-0.948,-0.9612,-0.9717,-0.989,-0.9936,-0.9941,-0.9988,-1.0111,-1.0128,-1.0144,-1.0211,-1.0233,-0.9957,-0.9957,-0.9957,0,-0.7771,-0.8006,-0.8116,-0.8279,-0.8389,-0.847,-0.8629,-0.8746,-0.898,-0.9056,-0.9042,-0.9407,-0.9538,-0.9787,-0.983,-0.9909,-0.9961,-0.9918,-1.0116,-1.0133,-1.0149,-1.0215,-1.024,-0.9957,-0.9957,-0.9957,-0.9957,0,-0.8004,-0.8167,-0.8269,-0.8491,-0.8612,-0.8772,-0.8911,-0.9021,-0.9083,-0.9187,-0.9404,-0.9564,-0.9766,-0.983,-0.9891,-1.009,-1.008,-1.0089,-1.0064,-1.0167,-1.0232,-1.0257,-0.9957,-0.9957,-0.9957,-0.9957,0,0,-0.8091,-0.8373,-0.8409,-0.8514,-0.8729,-0.886,-0.9026,-0.9222,-0.9317,-0.9476,-0.9623,-0.9865,-0.9877,-0.9996,-1.0074,-1.0181,-1.0316,-1.0179,-1.0185,-1.0203,-1.0552,-1.0546,-1.0573,-1.0346,-1.0351,-1.0355,-1.0538,0,-0.8241,-0.8538,-0.8643,-0.889,-0.9046,-0.9127,-0.9274,-0.9424,-0.9527,-0.9679,-0.9794,-0.9966,-0.9965,-1.0038,-1.0147,-1.0275,-1.0388,-1.0263,-1.049,-1.0497,-1.0444,-1.0606,-1.0601,-1.0765,-1.0563,-1.0568,-1.0571,0,-0.8455,-0.8616,-0.8877,-0.9078,-0.9148,-0.9276,-0.9468,-0.9609,-0.9784,-0.9852,-0.9986,-1.0058,-1.0241,-1.0203,-1.0461,-1.0374,-1.0473,-1.055,-1.056,-1.0589,-1.0542,-1.0645,-1.082,-1.0846,-1.061,-1.0607,-1.0604,0,-0.8499,-0.8781,-0.8976,-0.9062,-0.9299,-0.9389,-0.9493,-0.9664,-0.9777,-0.9945,-1.0021,-1.0208,-1.0312,-1.0458,-1.058,-1.054,-1.083,-1.08,-1.0897,-1.0894,-1.0957,-1.0952,-1.1156,-1.1013,-1.1012,-1.1012,-1.1011,0,-0.8658,-0.8816,-0.9,-0.912,-0.9302,-0.9424,-0.9603,-0.9712,-0.9865,-1.0012,-1.0093,-1.023,-1.0381,-1.054,-1.0637,-1.084,-1.0885,-1.0949,-1.0974,-1.0945,-1.0938,-1.1015,-1.1009,-1.1018,-1.1017,-1.1016,-1.1014,0,-0.8739,-0.8867,-0.9086,-0.9293,-0.9349,-0.9475,-0.9655,-0.9778,-0.9884,-1.007,-1.0121,-1.0291,-1.0482,-1.0618,-1.0864,-1.093,-1.115,-1.1171,-1.109,-1.1104,-1.1195,-1.1186,-1.1459,-1.1504,-1.1325,-1.1326,-1.1327,0,-0.8834,-0.8958,-0.9178,-0.9281,-0.9384,-0.9549,-0.9665,-0.9791,-0.9909,-1.012,-1.0219,-1.0415,-1.058,-1.0882,-1.1031,-1.1221,-1.1252,-1.1334,-1.1281,-1.1249,-1.126,-1.1253,-1.1269,-1.1343,-1.1344,-1.1345,-1.1346,0,-0.8991,-0.9049,-0.921,-0.9396,-0.9531,-0.9683,-0.9838,-0.9918,-1.0073,-1.0203,-1.0398,-1.0525,-1.0778,-1.0974,-1.118,-1.1292,-1.1348,-1.1361,-1.1395,-1.1369,-1.1319,-1.1353,-1.1117,-1.1355,-1.1354,-1.1354,-1.1353,-1.1353,-0.9086,-0.9202,-0.9377,-0.9556,-0.9685,-0.9828,-0.9955,-1.0078,-1.0242,-1.0456,-1.0521,-1.0726,-1.0904,-1.1186,-1.1301,-1.1466,-1.1462,-1.1509,-1.1522,-1.1533,-1.1535,-1.1288,-1.1503,-1.1503,-1.1503,-1.1503,-1.1503,0,-0.9253,-0.9369,-0.9532,-0.9745,-0.9887,-0.9923,-1.0097,-1.0215,-1.0393,-1.0552,-1.0713,-1.0941,-1.1132,-1.1296,-1.1496,-1.1597,-1.1629,-1.1646,-1.1643,-1.1669,-1.1524,-1.1478,-1.1618,-1.1618,-1.1618,-1.1618,-1.1618,-1.1618,-0.9356,-0.9556,-0.9636,-0.9903,-1.002,-1.0219,-1.0316,-1.0451,-1.058,-1.083,-1.0989,-1.1093,-1.1257,-1.147,-1.165,-1.1693,-1.1766,-1.1779,-1.1829,-1.1692,-1.1678,-1.1666,-1.1623,-1.1792,-1.1792,-1.1961,-1.1963,-1.1964]},{"header":{"parameterUnit":"m.s-1","parameterCategory":1,"la1":30.2991,"la2":30.254,"lo1":-89.0895,"lo2":-89.0444,"dy":0.0017,"dx":0.0017,"nx":28,"ny":28,"refTime":"2024-05-12T21:00:00:Z","depth":0,"parameterNumber":3,"parameterNumberName":"V-component_of_WINDS"},"data":[0,0,0,0,0,0,0,0,0,0,0,0,0,0,0,0,0,0,0,0,0,0,0,0,0,0,0,0,0,0,0,0,0,0,0,0,0,0,0,0,0,0,0,0,0,0,0,0,0,0,0,0,0,0,0,0,0,0,5.4909,5.4911,0,5.5074,5.5075,5.5077,5.5156,5.5156,5.5155,5.5155,5.532,5.5324,5.5328,0,0,0,0,0,0,0,0,0,0,0,0,0,5.4654,5.4658,5.4909,5.4911,5.4913,5.5073,5.5076,5.5078,5.5156,5.5156,5.5155,5.5155,5.5318,5.5323,5.5329,0,0,0,0,0,0,0,0,0,0,0,0,0,5.4786,5.466,5.4908,5.4971,5.4979,5.5073,5.5076,5.5078,5.5156,5.5156,5.5155,5.5155,5.5317,5.5323,5.533,5.5373,0,0,5.535,5.5353,0,0,0,0,0,0,0,0,5.4779,5.4795,5.496,5.4967,5.4975,5.5094,5.5046,5.5177,5.5156,5.5088,5.5155,5.5155,5.5244,5.5257,5.5288,5.538,5.5387,5.535,5.5354,5.5357,5.5359,0,0,0,0,0,0,0,5.4769,5.4789,5.4974,5.4962,5.4972,5.4989,5.5007,5.5071,5.5165,5.5094,5.51,5.5119,5.5249,5.5281,5.5292,5.539,5.535,5.5356,5.536,5.5363,5.552,5.552,0,0,0,0,0,0,5.4751,5.4781,5.4969,5.4979,5.4875,5.4993,5.5014,5.5056,5.5164,5.5181,5.5119,5.5122,5.527,5.5285,5.5298,5.5353,5.5357,5.5364,5.5367,5.552,5.552,5.552,0,0,0,0,0,0,5.4745,5.4767,5.4962,5.4882,5.4908,5.4998,5.5044,5.5059,5.5092,5.5183,5.5199,5.5136,5.5271,5.5289,5.5353,5.536,5.5367,5.5373,5.552,5.552,5.552,5.5465,0,0,0,0,0,0,5.4738,5.4764,5.4784,5.4881,5.4912,5.5016,5.5045,5.5063,5.5104,5.511,5.5203,5.5218,5.5272,5.5342,5.5359,5.537,5.5378,5.552,5.552,5.552,5.5466,5.5463,5.546,0,0,0,0,0,5.4728,5.4762,5.4785,5.4807,5.4938,5.5016,5.5033,5.5096,5.5104,5.5123,5.518,5.5216,5.5356,5.5348,5.5368,5.538,5.5519,5.552,5.552,5.5468,5.5464,5.546,0,0,0,0,0,0,5.4663,5.4776,5.4803,5.4869,5.4932,5.5029,5.5056,5.509,5.5151,5.5154,5.5226,5.5247,5.5303,5.5348,5.5337,5.5425,5.5441,5.5445,5.5394,5.5391,5.5388,5.5376,5.5383,0,0,0,0,0,5.4656,5.4712,5.4807,5.4856,5.4887,5.4965,5.5002,5.5043,5.5112,5.5138,5.5201,5.5264,5.5322,5.5359,5.5418,5.5473,5.5492,5.549,5.5487,5.5484,5.5487,5.5515,5.5515,5.5522,5.5522,5.5522,0,0,5.4643,5.4712,5.4743,5.4845,5.4899,5.4952,5.4987,5.5044,5.5083,5.5147,5.5211,5.5258,5.5332,5.5391,5.542,5.543,5.5489,5.5485,5.5482,5.5487,5.5516,5.5515,5.5514,5.5522,5.5522,5.5522,0,0,5.4646,5.4705,5.4751,5.4804,5.4885,5.4936,5.4946,5.5038,5.5072,5.5137,5.5184,5.523,5.533,5.5381,5.5419,5.5435,5.5468,5.5452,5.5437,5.5463,5.5462,5.5462,5.5466,5.5466,5.5454,5.5454,5.5454,0,5.462,5.4705,5.477,5.4823,5.4865,5.4924,5.4969,5.5016,5.5112,5.5138,5.5148,5.5272,5.5326,5.5395,5.5399,5.5429,5.5441,5.5442,5.5458,5.5458,5.5459,5.5463,5.5464,5.5452,5.5452,5.5452,5.5453,0,5.4666,5.4724,5.475,5.4841,5.4886,5.4934,5.5004,5.5041,5.5077,5.5126,5.5188,5.5256,5.5327,5.5346,5.5383,5.5419,5.5423,5.5444,5.5462,5.5454,5.5459,5.5461,5.5448,5.5449,5.545,5.545,0,0,5.4637,5.476,5.4769,5.4809,5.49,5.4945,5.4993,5.5064,5.5092,5.5154,5.5195,5.5276,5.5295,5.5338,5.538,5.5403,5.5408,5.5422,5.5424,5.5415,5.5448,5.5431,5.5432,5.543,5.543,5.5431,5.5441,0,5.4652,5.4745,5.4803,5.4871,5.4922,5.4977,5.5019,5.5077,5.5122,5.5171,5.522,5.5275,5.5298,5.5323,5.5349,5.5402,5.5415,5.5402,5.5466,5.5467,5.5445,5.5435,5.5418,5.5425,5.5443,5.5444,5.5444,0,5.4684,5.4744,5.4817,5.4899,5.4923,5.496,5.5026,5.5073,5.5138,5.5169,5.5215,5.5256,5.5306,5.5318,5.5386,5.5375,5.5404,5.5433,5.5435,5.5443,5.5455,5.5441,5.5429,5.5429,5.5448,5.5448,5.5448,0,5.4652,5.4752,5.4808,5.484,5.4938,5.4961,5.5003,5.5068,5.5105,5.5162,5.5186,5.5248,5.5282,5.5327,5.5382,5.5386,5.5443,5.546,5.5467,5.5466,5.5478,5.5476,5.5468,5.5497,5.5497,5.5497,5.5497,0,5.4663,5.4705,5.4794,5.4829,5.4876,5.494,5.4984,5.5029,5.5086,5.5127,5.5177,5.5214,5.5285,5.533,5.5373,5.5421,5.5436,5.546,5.5471,5.5456,5.5452,5.5476,5.5476,5.5497,5.5497,5.5497,5.5497,0,5.4637,5.4699,5.4763,5.4848,5.487,5.4901,5.4973,5.5006,5.5052,5.5104,5.5119,5.5192,5.5246,5.5306,5.5381,5.5409,5.5453,5.547,5.5432,5.5438,5.5441,5.5439,5.5448,5.5451,5.5477,5.5477,5.5477,0,5.464,5.4674,5.4762,5.4794,5.4834,5.4884,5.4922,5.4984,5.502,5.5094,5.5117,5.5176,5.5227,5.5311,5.5368,5.5424,5.5441,5.544,5.545,5.5432,5.5439,5.5436,5.5438,5.5437,5.5436,5.5436,5.5435,0,5.4638,5.4666,5.4719,5.4781,5.4824,5.4876,5.493,5.4952,5.5024,5.5061,5.5118,5.5157,5.5232,5.5288,5.535,5.539,5.5423,5.5431,5.5436,5.542,5.5396,5.5407,5.5422,5.5431,5.5432,5.5432,5.5432,5.5432,5.4626,5.4657,5.4723,5.4779,5.4825,5.4873,5.4907,5.4957,5.5006,5.5073,5.5105,5.516,5.522,5.5307,5.5345,5.5387,5.5397,5.5404,5.5406,5.5406,5.5401,5.5389,5.5398,5.5399,5.5399,5.5399,5.5399,0,5.4625,5.4669,5.472,5.4793,5.4835,5.4864,5.4923,5.4956,5.5005,5.5058,5.5106,5.5168,5.5221,5.5281,5.5337,5.5359,5.5375,5.5371,5.537,5.5378,5.539,5.538,5.5357,5.5357,5.5357,5.5357,5.5357,5.5357,5.463,5.4683,5.4717,5.4791,5.4834,5.489,5.4921,5.4963,5.5006,5.5074,5.5119,5.5157,5.5212,5.5271,5.532,5.5336,5.5353,5.5345,5.5364,5.5374,5.5378,5.5381,5.5372,5.5348,5.5348,5.535,5.535,5.5349]}]]